Wetbulb
50.57 51.61 51.93 52.29 52.54 54.14 54.21 54.60 55.29 57.21 57.71 57.55 57.16 56.34 55.45 55.26 55.36 55.07 54.60 55.03 55.31 55.81 57.17 57.80 58.32 59.50 59.58 60.13 60.87 60.99 60.37 60.53 58.17 59.88 63.41 64.01 63.67 62.53 64.65 65.05 64.71 65.13 65.27
50.11 50.81 50.89 50.90 51.33 51.99 52.86 53.26 53.51 54.26 56.21 57.01 56.83 56.17 55.44 55.39 55.01 54.07 53.79 55.30 55.28 54.82 55.48 56.17 56.87 58.64 59.51 60.87 60.37 59.92 60.78 62.16 60.64 58.18 61.41 61.26 61.61 61.51 62.43 63.77 64.15 65.09 65.10
49.19 48.99 49.14 49.66 50.05 50.24 50.92 51.76 52.66 53.36 54.43 55.08 55.87 55.61 55.48 55.22 55.07 54.43 54.23 54.37 54.54 54.90 55.46 55.41 56.07 57.48 57.71 59.24 60.12 59.52 60.33 61.07 61.28 60.08 60.19 61.26 62.15 62.65 61.35 63.32 61.85 62.50 63.93
48.07 47.77 47.64 47.74 47.87 48.13 48.83 49.37 50.18 51.38 52.20 53.25 54.22 54.98 55.17 54.96 54.99 54.66 54.13 54.24 54.51 54.86 55.24 55.29 55.49 55.46 55.73 56.97 58.97 59.24 59.63 58.66 58.27 58.90 58.02 59.10 60.32 61.74 61.64 61.05 58.46 60.94 61.37
46.94 46.73 46.92 47.65 48.09 48.27 48.51 48.81 49.39 49.59 50.49 51.19 51.72 52.32 52.93 53.41 53.81 54.12 54.68 54.36 54.18 54.16 55.03 55.43 55.66 55.72 55.46 55.26 56.62 58.21 58.44 57.99 57.69 56.90 56.16 56.80 57.75 57.85 58.46 59.12 59.27 59.37 59.33
44.89 44.90 46.16 46.75 46.97 46.99 47.47 47.82 48.04 48.30 48.85 49.44 49.80 50.28 50.67 51.41 49.23 49.21 52.58 53.73 54.24 53.98 53.49 54.12 54.57 54.40 54.55 52.95 53.44 54.32 56.92 57.46 55.16 55.42 56.12 55.48 56.16 58.58 57.42 57.30 57.82 55.42 54.46
43.37 44.25 44.70 44.97 44.89 45.18 45.46 45.48 45.63 45.98 46.96 47.04 47.74 48.47 48.75 50.04 47.12 46.89 48.71 53.07 53.00 53.15 52.88 52.56 52.55 53.77 54.01 55.08 52.87 51.52 51.91 51.62 53.38 56.87 55.52 56.55 57.76 58.79 57.89 56.30 55.76 55.74 55.82
41.92 42.34 42.96 42.97 42.85 43.44 43.48 43.45 43.95 44.48 44.89 45.49 46.37 47.43 47.89 48.76 46.22 45.22 46.50 51.44 51.81 51.18 51.52 52.27 52.81 53.25 54.32 54.24 54.39 54.42 55.10 55.47 55.07 54.87 56.90 58.11 59.57 57.79 58.32 58.40 56.30 55.48 54.62
40.42 40.82 41.38 42.01 41.77 41.84 41.85 41.75 41.73 41.76 41.87 42.63 43.53 44.39 46.71 48.38 44.92 43.79 45.24 48.86 49.00 49.67 50.65 51.67 52.44 53.17 50.39 47.34 52.76 53.63 54.38 54.98 53.66 50.62 51.81 51.15 49.29 48.92 52.43 53.90 52.30 51.23 50.09
39.23 39.89 40.75 40.89 40.59 40.59 40.36 40.41 41.10 41.25 40.84 42.42 42.30 43.42 44.21 46.52 44.68 43.40 44.51 47.11 46.84 47.43 48.74 50.90 49.04 51.22 48.13 45.75 49.56 51.52 51.39 53.41 54.85 55.08 55.32 49.70 49.35 49.48 48.57 56.49 52.42 51.04 51.65
38.93 39.26 39.58 40.45 39.87 39.83 39.69 39.81 39.96 39.41 40.91 40.72 40.41 41.86 44.31 45.03 45.36 43.17 42.31 46.64 47.00 47.92 49.41 50.61 53.77 47.25 44.15 43.61 43.39 55.18 54.57 55.11 52.38 54.16 53.03 53.61 52.51 52.81 52.84 53.37 53.65 53.78 53.16
38.14 38.03 38.02 38.60 38.93 39.35 38.95 38.81 39.10 39.23 38.58 39.03 39.21 40.57 41.45 43.14 43.22 43.31 42.34 42.38 45.51 48.20 49.55 52.28 51.40 46.14 44.51 44.33 46.83 44.33 44.87 51.03 53.40 52.36 52.55 51.14 51.62 51.03 52.62 52.67 53.29 53.52 55.31
36.92 36.63 36.88 37.74 38.27 38.39 37.81 37.48 37.40 38.28 38.09 37.94 38.60 39.02 40.79 45.34 47.32 43.72 42.05 41.48 41.20 43.26 49.88 48.99 44.03 43.06 42.86 47.01 43.14 44.33 46.31 53.05 51.93 51.04 51.70 51.53 51.21 52.33 52.84 53.23 53.64 53.95 54.45
34.59 34.78 35.73 35.74 36.35 37.22 37.75 38.00 37.66 37.51 37.42 37.72 38.33 39.19 41.45 43.96 46.53 46.41 45.62 46.62 43.53 45.35 48.42 49.61 48.32 45.71 42.70 46.98 46.37 47.73 53.11 53.25 53.02 52.55 51.57 50.66 50.89 51.51 53.38 54.44 55.16 55.73 56.23
33.54 34.35 34.80 35.32 35.79 36.23 37.18 37.53 37.91 38.84 38.99 38.48 39.29 40.97 41.31 42.67 44.59 43.02 43.53 47.39 49.58 48.44 48.95 50.25 49.62 47.81 47.64 49.07 50.31 52.65 52.80 53.38 52.46 51.59 50.98 50.70 50.97 52.34 53.01 53.36 54.56 56.36 56.40
33.09 33.50 33.97 34.56 35.01 35.43 36.03 36.69 38.24 38.21 38.47 37.90 37.75 38.86 41.04 40.62 39.86 37.23 40.51 40.16 39.26 41.61 48.32 48.42 49.14 49.05 48.96 50.11 51.19 51.65 52.75 51.64 52.61 52.43 52.07 51.65 51.44 52.09 52.74 53.64 55.64 56.48 56.81
31.76 32.51 32.93 33.59 34.02 34.31 34.97 35.26 35.12 38.23 38.98 38.44 37.83 38.10 38.11 39.50 38.64 39.45 39.21 40.89 38.53 41.07 48.06 48.08 49.63 50.38 50.70 51.71 51.99 52.18 52.20 53.07 53.27 53.08 52.37 52.57 52.86 52.69 51.19 53.68 55.53 56.38 57.70
32.09 33.56 33.53 33.95 34.72 35.14 35.47 35.65 36.19 36.19 36.97 37.66 39.88 38.61 38.01 38.62 37.70 37.19 38.89 42.44 46.23 45.43 47.86 48.89 50.25 51.53 51.77 52.10 52.06 52.19 51.95 52.03 52.69 52.31 52.62 53.05 53.57 53.45 53.42 54.40 55.78 56.58 57.04
32.99 33.72 34.71 35.77 36.55 37.09 37.29 36.40 36.22 37.48 37.24 37.75 41.58 38.96 39.16 37.17 36.95 36.74 37.24 45.07 44.14 44.76 45.52 48.76 51.64 51.61 52.76 53.07 53.44 53.09 52.71 52.09 52.30 52.58 52.96 53.16 53.43 54.13 54.69 55.86 55.53 44.87 48.80
33.63 34.77 35.72 37.45 39.81 40.01 38.25 36.35 36.36 37.09 37.29 38.63 40.09 40.77 41.07 40.03 40.56 41.05 41.47 43.81 44.16 44.40 45.15 47.07 51.81 52.92 53.07 53.24 53.01 52.40 51.79 51.88 52.59 52.55 52.66 53.46 54.21 54.89 55.40 55.95 55.92 55.05 54.67
34.37 35.81 35.77 41.07 39.78 38.80 37.81 36.90 36.82 37.47 38.16 40.08 40.70 41.23 35.99 41.37 40.81 40.56 41.37 43.04 43.78 44.26 44.87 46.63 51.89 52.92 53.50 53.29 52.83 52.82 52.91 51.86 51.16 51.60 52.29 52.52 53.41 54.48 55.62 56.71 56.62 56.32 56.74
35.48 37.28 39.41 40.96 39.32 37.77 37.91 37.89 37.90 38.71 39.28 39.20 40.22 40.75 33.63 40.85 41.13 40.36 41.88 43.43 44.61 45.29 46.00 46.38 48.96 52.67 53.06 52.66 52.33 51.73 50.31 50.06 51.16 53.12 54.69 55.99 56.57 56.79 56.81 57.27 57.38 57.17 56.65
34.29 35.58 37.14 38.07 39.85 37.06 38.29 38.57 38.14 38.19 38.91 39.23 40.07 41.23 41.29 42.05 42.90 41.05 41.72 43.80 44.50 45.03 46.11 47.54 49.30 50.24 51.39 52.08 51.93 51.42 50.55 50.29 51.95 54.31 56.73 56.97 56.94 57.42 57.82 57.67 57.83 56.79 56.38
32.96 33.90 34.71 35.25 36.03 37.75 39.00 38.27 38.45 36.95 38.48 39.96 39.70 41.30 42.14 44.09 44.61 43.08 42.26 43.03 43.96 46.22 47.69 48.97 49.00 49.11 49.90 50.21 50.66 51.93 53.50 54.26 56.07 57.58 57.93 57.78 57.61 54.42 56.30 55.72 55.44 55.66 55.78
31.02 31.57 31.96 32.67 33.51 34.23 36.18 39.04 38.78 39.09 39.59 40.60 41.34 41.51 41.95 42.72 43.94 45.29 44.79 44.81 45.02 45.91 47.57 48.56 49.38 49.82 50.36 51.38 52.40 54.27 43.11 37.44 53.99 46.67 58.30 58.24 57.51 57.42 57.63 57.37 56.79 52.03 50.45
28.88 29.43 29.61 30.55 31.04 32.06 32.66 34.17 35.77 37.52 40.24 41.54 41.89 42.39 42.88 43.31 44.01 45.31 45.69 46.58 46.57 46.34 46.23 48.60 49.47 50.58 51.32 51.45 51.34 40.41 36.06 34.89 44.87 36.38 54.12 56.55 56.55 56.44 56.52 55.76 50.55 49.31 48.77
MSLP
1008.53 1008.58 1008.73 1008.78 1008.94 1008.96 1008.87 1008.64 1008.70 1008.71 1008.80 1008.86 1008.79 1008.93 1009.12 1009.27 1009.29 1009.34 1009.20 1009.10 1009.05 1008.80 1008.74 1008.71 1008.60 1008.60 1008.54 1008.45 1008.29 1008.10 1008.01 1007.96 1007.29 1006.99 1006.65 1006.13 1006.10 1006.27 1005.79 1005.92 1005.51 1006.50 1006.86
1008.62 1008.58 1008.64 1008.57 1008.53 1008.68 1008.85 1008.88 1009.02 1009.19 1008.89 1008.47 1008.35 1008.37 1008.36 1008.39 1008.50 1008.65 1008.58 1008.45 1008.39 1008.25 1007.94 1007.99 1007.77 1007.80 1007.75 1007.57 1007.53 1007.28 1007.09 1006.88 1006.61 1006.37 1006.13 1005.95 1005.60 1005.06 1004.91 1005.12 1005.50 1006.23 1006.40
1009.08 1008.88 1008.66 1008.62 1008.62 1008.52 1008.40 1008.26 1008.07 1007.98 1007.98 1008.05 1008.19 1008.16 1007.98 1007.52 1007.44 1007.61 1007.61 1007.59 1007.59 1007.51 1007.32 1007.14 1007.00 1007.01 1007.03 1006.83 1006.74 1006.57 1006.41 1006.22 1006.00 1005.72 1005.48 1005.35 1005.00 1004.90 1005.03 1005.11 1005.03 1005.44 1005.86
1009.10 1008.98 1008.81 1008.62 1008.57 1008.44 1008.18 1007.99 1007.80 1007.62 1007.56 1007.26 1006.99 1006.73 1006.61 1006.66 1006.67 1006.67 1006.60 1006.57 1006.55 1006.52 1006.50 1006.43 1006.26 1006.20 1006.18 1006.14 1006.01 1005.91 1005.73 1005.60 1005.41 1005.27 1004.99 1004.91 1004.96 1004.80 1004.87 1004.53 1004.78 1004.68 1005.41
1009.31 1009.15 1008.95 1008.72 1008.45 1008.20 1008.01 1007.75 1007.46 1007.17 1006.85 1006.64 1006.38 1006.11 1005.84 1005.62 1005.43 1005.50 1005.48 1005.35 1005.39 1005.49 1005.49 1005.42 1005.35 1005.22 1005.16 1005.23 1005.24 1005.16 1005.11 1005.05 1004.88 1004.87 1004.87 1004.83 1004.58 1004.81 1004.51 1004.42 1004.11 1004.79 1005.53
1009.38 1009.03 1008.66 1008.37 1008.04 1007.75 1007.43 1007.10 1006.80 1006.43 1006.10 1005.78 1005.44 1005.14 1004.84 1004.49 1004.17 1004.19 1004.26 1004.31 1004.27 1004.39 1004.51 1004.50 1004.46 1004.27 1004.16 1004.20 1004.27 1004.26 1004.12 1004.14 1004.08 1004.20 1004.16 1004.06 1003.90 1004.06 1004.27 1004.02 1003.77 1005.15 1005.84
1009.30 1008.80 1008.38 1007.91 1007.48 1007.16 1006.85 1006.49 1006.11 1005.71 1005.36 1004.98 1004.56 1004.28 1003.83 1003.53 1003.30 1003.23 1003.16 1003.10 1003.18 1003.28 1003.37 1003.38 1003.11 1003.14 1003.09 1003.25 1003.15 1003.10 1002.99 1003.12 1003.34 1003.59 1003.43 1003.12 1003.16 1003.22 1003.47 1003.56 1004.03 1004.49 1004.94
1008.82 1008.23 1007.71 1007.20 1006.75 1006.49 1006.22 1005.88 1005.50 1005.15 1004.75 1004.28 1003.79 1003.37 1002.92 1002.47 1002.35 1002.30 1002.28 1002.18 1002.32 1002.41 1002.48 1002.16 1002.05 1002.01 1001.94 1001.92 1001.81 1001.50 1001.38 1001.51 1001.91 1002.43 1002.53 1002.34 1002.51 1002.52 1002.89 1002.98 1003.67 1004.53 1005.01
1008.05 1007.49 1007.03 1006.67 1006.26 1006.01 1005.65 1005.30 1004.90 1004.54 1004.13 1003.71 1003.29 1002.75 1002.25 1001.80 1001.63 1001.59 1001.76 1001.75 1001.68 1001.60 1001.45 1001.32 1001.08 1000.91 1000.71 1000.66 1000.53 999.89 999.67 999.33 1000.24 1000.74 1001.37 1001.56 1002.09 1002.16 1002.53 1003.35 1004.05 1004.34 1004.77
1007.37 1006.83 1006.47 1006.14 1005.73 1005.30 1004.97 1004.57 1004.18 1003.88 1003.49 1003.04 1002.63 1002.36 1001.97 1001.39 1001.03 1001.02 1001.02 1001.02 1000.83 1000.76 1000.42 1000.08 999.91 999.48 999.25 999.22 999.13 998.41 997.42 997.30 998.52 999.60 1000.58 1001.41 1001.79 1002.15 1002.38 1002.54 1002.52 1003.27 1004.08
1006.99 1006.51 1006.04 1005.61 1005.21 1004.89 1004.41 1004.02 1003.66 1003.29 1002.89 1002.53 1002.17 1001.71 1001.28 1000.82 1000.45 1000.34 1000.38 1000.47 1000.32 1000.05 999.56 998.90 998.42 998.48 998.56 997.64 996.88 995.49 993.77 994.53 996.91 998.58 999.91 1001.05 1001.62 1001.67 1002.67 1002.43 1002.56 1002.95 1003.23
1006.54 1005.98 1005.49 1005.03 1004.68 1004.32 1003.92 1003.34 1003.02 1002.65 1002.31 1001.89 1001.58 1001.10 1000.66 1000.18 999.88 999.54 999.55 999.60 999.41 999.44 998.67 998.25 998.11 998.00 997.29 996.60 996.36 995.13 994.33 994.39 996.45 998.21 999.60 1000.91 1000.25 1001.86 1002.06 1002.05 1002.41 1002.69 1002.87
1006.00 1005.42 1004.91 1004.47 1004.03 1003.61 1003.18 1002.71 1002.37 1002.06 1001.72 1001.38 1000.96 1000.37 999.81 999.09 998.71 998.63 998.67 998.69 999.01 998.95 998.03 997.92 998.07 997.90 996.72 996.49 996.18 995.57 996.11 996.65 997.40 998.15 999.15 1000.00 1000.72 1001.45 1001.70 1002.28 1002.41 1002.65 1002.92
1005.49 1004.86 1004.42 1003.83 1003.26 1002.88 1002.39 1001.86 1001.46 1001.14 1000.85 1000.57 1000.21 999.79 999.23 998.63 998.09 998.01 998.09 998.01 998.06 997.88 997.68 997.68 997.33 997.03 996.84 997.08 997.09 997.52 997.33 997.32 997.03 997.67 999.18 1000.22 1001.08 1001.12 1001.81 1001.93 1001.95 1002.05 1002.33
1005.02 1004.38 1003.75 1003.21 1002.55 1001.89 1001.41 1000.92 1000.54 1000.14 1000.04 999.95 999.77 999.49 999.01 998.41 997.86 997.81 997.96 997.82 997.62 997.46 997.39 997.12 997.21 996.98 996.79 996.96 997.08 997.36 997.41 997.39 998.03 998.72 999.37 999.85 1000.50 1001.15 1001.37 1001.54 1001.80 1002.14 1002.11
1004.56 1003.86 1003.17 1002.54 1001.82 1001.24 1000.65 999.90 999.57 999.39 999.23 999.31 999.33 999.35 998.82 998.55 998.20 998.14 997.73 997.48 997.54 997.34 997.00 997.41 997.20 997.11 996.97 996.71 996.64 997.20 997.64 997.70 998.06 998.49 999.11 999.86 1000.47 1000.83 1001.11 1001.32 1001.41 1001.57 1001.78
1004.22 1003.42 1002.67 1001.95 1001.18 1000.54 999.96 999.47 998.92 998.41 998.39 998.47 998.35 998.38 998.27 998.03 997.95 997.77 997.72 997.43 997.50 997.66 997.06 996.88 997.08 996.73 996.70 996.80 997.00 997.11 997.38 997.70 997.97 998.67 999.45 1000.08 1000.26 1000.49 1000.66 1000.75 1001.03 1001.22 1001.51
1003.60 1002.78 1001.98 1001.04 1000.29 999.55 999.05 998.74 998.51 998.17 997.88 997.82 997.44 997.38 997.45 997.47 997.71 997.80 997.78 997.44 997.49 997.04 996.92 996.58 996.32 996.43 996.50 996.56 996.94 996.85 997.47 998.00 998.48 999.05 999.58 999.91 999.98 1000.03 1000.38 1000.63 1000.88 1001.01 1001.29
1002.77 1001.88 1001.05 1000.16 999.28 998.49 998.13 998.00 997.93 997.73 997.68 997.51 996.93 996.87 997.03 997.47 997.56 997.80 997.84 997.88 998.03 997.50 997.22 996.49 995.98 996.18 996.22 996.35 996.83 996.91 997.31 997.98 998.53 998.93 999.39 999.68 999.87 1000.05 1000.30 1000.50 1000.75 1001.25 1001.44
1002.05 1001.19 1000.33 999.48 998.50 997.74 997.56 997.64 997.69 997.55 997.50 997.21 996.91 996.68 996.96 997.24 997.17 997.46 997.73 997.77 997.69 997.57 997.13 996.98 996.30 996.30 996.03 996.29 996.88 997.12 997.76 998.15 998.40 998.89 999.22 999.42 999.81 1000.05 1000.22 1000.48 1000.90 1001.03 1001.57
1001.60 1000.62 999.89 998.95 998.49 998.06 997.83 997.69 997.57 997.46 997.26 997.01 996.96 996.83 996.98 997.06 997.03 996.86 997.15 997.22 997.13 997.25 997.25 996.80 996.35 996.30 996.28 996.51 996.89 997.24 997.62 998.10 998.49 998.72 998.97 999.33 999.72 999.93 1000.12 1000.39 1000.70 1001.01 1001.31
1001.36 1000.55 999.74 998.97 998.77 998.46 998.11 997.88 997.63 997.45 997.40 997.41 997.30 997.09 997.08 997.13 997.16 997.09 997.01 997.26 997.19 997.54 997.39 996.79 996.30 996.16 996.32 996.46 996.80 997.12 997.58 998.04 998.33 998.72 999.04 999.16 999.43 999.88 1000.03 1000.19 1000.38 1000.85 1001.10
1001.55 1000.76 1000.06 999.50 998.93 998.67 998.35 998.10 997.98 997.88 997.84 997.69 997.60 997.32 997.18 997.11 997.09 997.19 997.03 996.87 997.07 997.08 996.94 996.59 996.08 996.04 996.32 996.62 996.99 996.95 997.24 997.88 998.27 998.70 998.70 998.87 999.25 999.65 1000.05 1000.16 1000.34 1000.63 1000.83
1002.05 1001.32 1000.73 1000.14 999.69 999.03 998.72 998.49 998.33 998.16 998.02 997.85 997.79 997.61 997.36 997.13 997.03 997.06 997.04 996.95 997.12 997.11 996.79 996.46 995.99 995.94 996.32 996.74 997.11 997.38 997.58 997.94 998.24 998.41 998.60 998.70 999.21 999.75 1000.03 1000.08 1000.36 1000.45 1000.34
1002.96 1002.33 1001.66 1001.12 1000.58 1000.09 999.56 999.05 998.74 998.48 998.22 998.07 997.95 997.92 997.84 997.66 997.45 997.25 997.08 997.07 996.94 996.70 996.54 996.50 996.32 996.47 996.57 997.01 997.43 997.60 997.52 997.82 998.15 998.54 998.97 998.92 999.36 999.68 999.78 1000.00 1000.13 1000.25 1000.36
1003.87 1003.30 1002.83 1002.31 1001.75 1001.25 1000.76 1000.29 999.86 999.50 998.98 998.58 998.35 998.23 998.16 998.01 997.82 997.62 997.28 997.05 996.93 996.83 996.79 996.72 996.69 996.88 997.15 997.50 997.78 997.89 998.17 998.44 998.40 998.74 999.24 999.42 999.62 999.72 999.80 999.85 999.97 1000.22 1000.42
Wind_Speed
5 4 4 5 5 4 5 6 8 7 10 10 10 10 9 8 7 6 6 5 6 5 5 6 8 8 7 7 8 9 9 10 12 11 5 4 5 7 4 4 3 6 5
6 6 6 6 5 5 5 6 4 7 6 9 9 10 10 10 10 9 9 7 7 7 7 6 8 5 9 9 8 11 11 11 10 14 8 6 10 6 3 2 4 5 7
5 5 5 5 5 6 6 7 7 7 9 9 9 11 12 12 11 11 11 10 10 10 9 8 9 8 9 8 10 9 8 8 9 8 8 8 9 5 5 5 2 2 3
5 5 6 6 6 6 6 6 6 7 8 9 11 14 14 13 12 12 12 12 12 11 11 10 9 9 11 11 10 12 10 9 8 8 8 7 6 5 5 5 2 2 2
6 6 6 6 6 6 6 6 6 7 8 9 11 11 13 12 11 14 14 14 13 12 11 11 11 13 18 15 10 11 11 11 10 9 9 9 9 7 8 4 3 3 4
7 9 8 8 8 9 8 9 9 11 11 10 11 12 13 11 15 18 16 12 13 12 11 11 12 17 18 20 20 20 14 13 15 12 10 11 12 10 4 3 4 3 3
9 10 10 11 11 11 11 12 12 13 12 13 14 12 14 14 16 18 19 12 11 11 11 11 11 10 14 14 18 23 24 24 21 15 15 14 12 10 6 5 4 4 4
12 12 12 12 13 12 11 11 9 8 9 10 12 13 13 12 16 17 17 11 9 10 12 12 12 13 14 17 17 20 19 19 19 16 18 16 13 7 6 5 6 4 2
13 13 12 11 12 12 11 11 11 10 10 11 12 15 13 12 12 14 11 8 9 10 10 13 14 14 19 20 20 20 20 20 15 21 19 11 10 10 9 7 6 5 3
13 14 13 12 12 12 13 13 12 10 12 10 12 13 16 14 14 14 14 10 13 11 14 15 18 18 18 18 17 21 23 20 18 13 11 5 6 9 15 6 7 4 3
13 14 13 12 12 13 13 12 12 12 10 11 13 13 14 12 13 14 14 10 10 10 9 10 9 11 15 19 17 11 18 21 21 14 10 7 6 6 5 4 6 5 4
13 14 14 13 11 10 13 12 12 11 12 11 12 11 11 14 17 16 16 16 14 10 10 7 5 13 11 12 8 11 14 19 13 12 11 8 7 5 5 3 5 5 4
14 14 13 13 12 11 12 12 10 10 9 10 9 10 10 7 8 14 16 14 10 7 9 5 10 12 17 7 10 12 9 9 10 14 10 7 5 5 5 3 3 5 5
15 14 12 12 13 11 9 9 9 9 8 8 9 8 8 9 5 4 5 5 10 9 6 3 8 11 5 2 6 6 3 7 9 10 8 5 5 4 3 3 2 2 1
13 12 12 11 11 11 10 9 9 10 9 8 8 7 6 8 6 4 5 5 5 4 2 2 3 2 2 3 6 5 5 6 8 6 6 6 5 4 2 2 2 2 2
13 10 10 10 10 9 9 9 12 17 18 14 16 13 9 12 13 5 4 3 1 6 1 1 4 4 5 5 6 5 3 5 6 6 6 6 4 3 3 3 2 2 0
13 13 11 12 9 9 8 8 8 6 12 14 14 15 14 13 8 6 3 7 4 5 1 2 7 5 5 6 6 6 5 4 5 5 5 4 4 3 3 2 3 2 1
13 21 11 10 10 9 8 7 6 7 4 5 7 8 9 6 5 3 3 5 4 3 0 6 4 4 5 6 5 5 5 6 4 4 4 4 3 2 2 2 3 3 2
11 10 10 9 10 11 7 5 5 5 3 5 5 1 3 3 3 4 3 1 2 3 5 6 5 5 7 5 4 5 6 6 5 5 4 2 3 2 2 3 3 2 2
10 16 13 9 7 6 2 2 3 2 2 5 3 0 2 2 3 2 2 2 2 2 6 8 3 3 5 7 6 6 6 6 5 4 4 4 2 2 2 3 3 3 3
8 9 12 6 6 4 3 2 1 1 4 1 4 2 1 2 4 2 1 2 2 3 5 6 2 4 5 6 6 5 5 5 4 4 4 3 3 2 3 3 3 3 3
7 7 7 5 4 5 4 2 1 2 3 3 3 2 3 1 1 2 3 3 3 5 5 6 4 4 5 6 5 5 7 6 5 4 4 4 3 2 3 2 2 3 4
7 8 7 7 5 5 4 4 3 3 4 3 3 4 1 1 2 2 4 3 3 4 5 6 3 4 5 4 4 6 8 6 5 4 4 4 3 2 1 1 2 4 6
9 9 8 7 7 7 4 4 3 4 3 2 2 4 4 5 3 3 1 2 3 4 5 4 1 5 6 6 4 4 5 6 5 5 5 4 2 1 2 2 4 7 7
9 9 9 9 8 8 8 6 4 4 5 3 3 3 4 4 4 3 2 1 2 3 3 3 2 5 7 8 7 7 9 8 6 5 3 3 2 4 4 4 5 3 3
10 10 9 9 9 9 8 8 7 7 7 5 3 3 3 3 3 3 2 3 3 1 3 3 5 7 9 8 7 7 7 5 5 5 2 1 3 4 4 3 4 3 6
Wind_Direction
321 310 299 279 288 298 243 228 221 217 216 215 211 210 212 216 226 226 231 241 242 242 214 217 242 244 245 243 240 239 239 237 249 260 245 234 241 231 193 216 161 220 210
313 305 287 280 269 247 251 269 298 273 276 243 224 218 218 216 218 217 225 225 229 241 244 209 237 235 243 248 237 236 237 232 230 243 236 233 223 227 226 195 165 220 226
351 351 338 313 284 269 258 249 246 238 235 228 229 235 239 229 220 219 220 223 222 228 236 227 237 229 236 238 245 251 237 232 229 232 237 240 248 233 223 223 154 165 227
340 336 325 327 320 305 299 292 284 274 261 252 236 234 230 231 230 228 223 222 225 228 231 235 236 239 247 247 237 235 229 226 225 233 238 248 247 245 251 247 227 156 247
340 332 317 308 304 301 296 287 279 276 273 260 261 251 245 237 231 227 227 223 222 228 230 231 236 240 243 240 242 231 226 230 239 237 243 257 249 237 226 207 177 114 225
321 307 301 297 296 288 277 277 275 274 272 265 256 252 254 246 239 223 220 223 222 223 229 236 239 245 248 246 234 236 232 232 240 241 245 238 240 228 196 199 109 122 222
292 289 285 281 279 279 277 276 274 272 270 267 268 260 260 257 247 235 226 225 222 223 227 236 245 246 237 245 242 237 242 239 240 246 249 246 237 210 168 162 154 161 183
285 283 281 282 280 281 280 274 273 276 277 276 270 265 262 262 242 235 233 236 235 240 239 241 243 253 250 248 249 247 239 240 236 234 239 247 237 170 184 197 169 137 78
284 284 286 284 284 283 276 277 276 272 274 273 273 274 275 271 250 237 236 243 249 246 254 263 259 255 253 241 240 242 242 241 225 214 225 195 184 173 156 138 159 153 169
292 293 293 290 284 284 285 284 279 276 277 277 279 276 275 278 257 244 246 261 268 269 270 263 244 247 249 253 251 252 241 227 213 187 181 137 174 175 174 188 150 145 126
293 291 285 283 287 287 283 282 281 277 279 279 277 275 272 263 266 252 244 250 257 256 250 260 260 255 251 252 270 254 230 184 155 150 146 147 178 135 220 161 168 169 159
288 291 290 289 285 285 279 275 272 273 274 274 277 274 269 263 259 256 244 241 242 247 260 268 292 303 296 272 308 90 69 120 127 143 135 167 126 189 209 204 206 208 225
295 293 291 287 281 276 274 272 273 265 258 265 269 269 263 261 248 234 243 244 242 243 254 264 293 286 288 314 44 90 84 120 156 138 146 146 165 176 138 161 206 215 226
295 291 290 286 285 275 265 260 258 260 259 262 263 269 280 280 252 247 241 228 242 252 245 280 288 278 255 182 96 160 167 160 140 130 136 123 143 124 160 171 156 133 153
291 291 287 281 276 275 266 264 257 253 246 260 271 275 307 299 273 255 248 240 243 198 199 309 312 284 166 179 146 155 141 119 125 127 136 125 123 147 146 137 141 159 170
293 292 287 287 282 276 274 275 249 248 254 250 257 254 274 267 297 232 264 267 91 152 187 96 278 203 188 169 152 133 138 134 125 116 119 127 140 149 156 163 154 126 133
292 293 290 286 279 276 270 266 277 270 241 271 248 251 244 252 252 202 301 39 79 154 240 311 262 209 177 169 166 165 155 154 121 117 120 156 149 135 144 150 145 126 77
288 285 281 280 276 271 263 260 257 267 274 292 252 244 207 229 193 229 278 3 13 353 296 277 250 198 181 173 172 144 127 142 135 137 144 161 153 127 136 162 162 139 149
295 291 288 284 280 273 264 251 251 263 266 275 293 173 195 169 255 220 264 67 335 5 330 299 238 196 184 157 170 121 135 147 148 139 140 147 153 154 172 163 137 142 97
300 294 292 291 310 329 276 242 267 247 275 276 296 93 101 101 242 189 173 169 310 13 316 292 223 186 147 135 135 122 125 134 134 142 141 140 160 176 177 165 173 165 202
305 303 302 310 333 339 345 332 320 267 266 19 20 330 145 222 257 283 199 147 262 270 285 304 226 180 154 140 136 137 133 132 139 135 131 156 175 189 186 172 171 213 213
314 320 325 332 348 358 359 14 15 343 49 23 348 25 93 241 300 214 188 173 218 239 266 294 285 202 174 155 156 147 140 143 144 134 148 143 125 123 121 142 159 243 234
338 340 348 355 357 353 13 22 36 17 18 11 359 351 85 351 27 185 204 186 227 265 281 286 264 168 159 157 162 152 148 164 158 155 137 118 108 101 120 239 236 246 227
356 360 1 1 7 358 12 39 40 33 5 3 359 10 18 25 38 64 193 203 233 249 277 296 251 154 140 132 137 148 131 134 141 127 119 106 106 170 227 238 249 256 230
7 7 8 9 9 7 7 14 25 16 15 11 21 7 8 15 33 37 47 123 194 284 313 355 103 128 122 130 133 135 122 110 108 101 103 98 245 264 269 263 261 243 230
14 14 13 11 13 12 12 10 9 10 7 357 3 11 28 22 14 34 27 35 101 306 328 33 65 114 118 113 113 111 102 101 106 76 72 238 256 262 266 254 154 184 166